Regional Weather Roundup
Issued by NWS Sioux Falls, SD

Home | Current Version | Previous Version | Graphics & Text | Print | Product List | Glossary On
Versions: 1 2 3 4 5 6 7 8 9 10 11 12 13 14 15 16 17 18 19 20 21 22 23 24 25 26 27 28 29 30 31 32 33 34 35 36 37 38 39 40 41 42 43 44 45 46 47 48 49 50
000
ASUS43 KFSD 200610
RWRFSD

WEATHER ROUNDUP FOR SE SOUTH DAKOTA/SW MINNESOTA/NW IOWA
NATIONAL WEATHER SERVICE SIOUX FALLS SD
100 AM CDT SUN APR 20 2014

NOTE: "FAIR" INDICATES FEW OR NO CLOUDS BELOW 12,000 FEET WITH NO
SIGNIFICANT WEATHER AND OR OBSTRUCTIONS TO VISIBILITY.


SDZ038>040-050-052>070-200700-
SOUTHEAST SOUTH DAKOTA

CITY           SKY/WX    TMP DP  RH WIND       PRES   REMARKS
CHAMBERLAIN      N/A     48  24  39 S3        30.00F
6HR MIN TEMP:  46; 6HR MAX TEMP:  68;

HURON          PTCLDY    42  31  64 CALM      29.99F
6HR MIN TEMP:  41; 6HR MAX TEMP:  66;

MADISON        FAIR      45  27  49 E3        30.02S
MITCHELL       CLEAR     48  33  56 CALM      30.00F
6HR MIN TEMP:  47; 6HR MAX TEMP:  68;

SIOUX FALLS    CLOUDY    55  39  54 CALM      30.01S
6HR MIN TEMP:  55; 6HR MAX TEMP:  66;

WINNER         FAIR      50  17  27 S7        30.01F
YANKTON        FAIR      55  34  44 CALM      30.01R
$$

MNZ071-072-080-081-089-090-097-098-200700-
SOUTHWEST MINNESOTA

CITY           SKY/WX    TMP DP  RH WIND       PRES   REMARKS
FAIRMONT       CLOUDY    55  46  71 N6        30.03F
JACKSON        CLOUDY    52  45  76 NE5       30.03S
LUVERNE        MOCLDY    55  43  62 NE3       30.02S
MARSHALL       FAIR      50  36  57 S6        30.01S
6HR MIN TEMP:  48; 6HR MAX TEMP:  64;

MONTEVIDEO     FAIR      48  39  71 SW6       30.01S
PIPESTONE      FAIR      54  32  43 E3        30.02S
REDWOOD FALLS  CLOUDY    54  45  71 S6        30.01S
TRACY          CLOUDY    56  43  61 CALM      30.02F
WINDOM         LGT RAIN  54  45  71 CALM      30.03S
WORTHINGTON    FAIR      54  43  66 NE3       30.05R
$$

IAZ001>003-012>014-020>022-031-032-NEZ013-014-SDZ071-200700-
NORTHWEST IOWA

CITY           SKY/WX    TMP DP  RH WIND       PRES   REMARKS
CHEROKEE       MOCLDY    59  45  59 CALM      30.00R
DENISON        CLOUDY    66  45  45 S15G21    30.00R
ESTHERVILLE    CLOUDY    55  48  77 NE5       30.01S
LE MARS        MOCLDY    57  48  72 NE7       30.00S
ORANGE CITY    MOCLDY    61  46  59 NE6       30.00F
SHELDON        CLOUDY    55  43  62 E8        30.00F
SIOUX CITY     MOCLDY    59  47  64 W5        29.98S
6HR MIN TEMP:  58; 6HR MAX TEMP:  71;

SPENCER        CLOUDY    58  47  66 N7        30.02S
6HR MIN TEMP:  58; 6HR MAX TEMP:  68;

STORM LAKE     MOCLDY    63  45  51 S12       30.01S
$$

ABBREVIATIONS USED IN REMARKS
   TC - TEMPERATURE IN CELSIUS
  WCI - WIND CHILL INDEX
   HX - HEAT INDEX
  VSB - VISIBILITY




USA.gov is the U.S. government's official web portal to all federal, state and local government web resources and services.